TimeEDT,TemperatureF,Dew PointF,Humidity,Sea Level PressureIn,VisibilityMPH,Wind Direction,Wind SpeedMPH,Gust SpeedMPH,PrecipitationIn,Events,Conditions,WindDirDegrees,DateUTC
12:56 AM,71.1,66.0,84,29.96,10.0,SW,4.6,-,N/A,,Clear,220,2012-10-07 04:56:00
1:56 AM,70.0,64.9,84,29.96,10.0,SW,5.8,-,N/A,,Clear,220,2012-10-07 05:56:00
2:56 AM,72.0,66.9,84,29.96,10.0,WSW,5.8,-,N/A,,Mostly Cloudy,240,2012-10-07 06:56:00
3:56 AM,72.0,66.9,84,29.96,10.0,WSW,4.6,-,N/A,,Overcast,250,2012-10-07 07:56:00
4:56 AM,73.0,69.1,87,29.97,10.0,North,3.5,-,N/A,,Mostly Cloudy,350,2012-10-07 08:56:00
5:56 AM,73.0,68.0,84,29.97,10.0,NE,3.5,-,N/A,,Mostly Cloudy,50,2012-10-07 09:56:00
6:40 AM,73.4,66.2,78,29.96,10.0,Calm,Calm,-,N/A,,Scattered Clouds,0,2012-10-07 10:40:00
6:56 AM,73.0,66.9,81,29.97,10.0,Calm,Calm,-,N/A,,Mostly Cloudy,0,2012-10-07 10:56:00
7:56 AM,73.9,69.1,85,29.99,9.0,Calm,Calm,-,N/A,,Overcast,0,2012-10-07 11:56:00
8:56 AM,77.0,70.0,79,30.00,9.0,Calm,Calm,-,N/A,,Mostly Cloudy,0,2012-10-07 12:56:00
9:10 AM,77.0,69.8,78,29.98,10.0,ESE,5.8,-,N/A,,Scattered Clouds,110,2012-10-07 13:10:00
9:56 AM,78.1,69.1,74,30.01,10.0,East,3.5,-,N/A,,Partly Cloudy,100,2012-10-07 13:56:00
10:17 AM,77.0,69.8,78,30.01,10.0,NW,9.2,-,N/A,,Mostly Cloudy,320,2012-10-07 14:17:00
10:44 AM,78.8,69.8,74,30.01,10.0,North,6.9,-,N/A,,Scattered Clouds,10,2012-10-07 14:44:00
10:56 AM,78.1,69.1,74,30.01,10.0,NE,8.1,-,N/A,,Partly Cloudy,40,2012-10-07 14:56:00
11:56 AM,77.0,69.1,76,30.01,10.0,NE,6.9,-,N/A,,Mostly Cloudy,50,2012-10-07 15:56:00
12:13 PM,78.8,69.8,74,29.99,10.0,ENE,5.8,-,N/A,,Scattered Clouds,60,2012-10-07 16:13:00
12:56 PM,80.1,70.0,71,29.99,10.0,Calm,Calm,-,N/A,,Scattered Clouds,0,2012-10-07 16:56:00
1:15 PM,78.8,69.8,74,29.97,10.0,NNE,6.9,-,N/A,,Mostly Cloudy,20,2012-10-07 17:15:00
1:33 PM,80.6,69.8,70,29.97,10.0,North,5.8,-,N/A,,Mostly Cloudy,360,2012-10-07 17:33:00
1:56 PM,79.0,69.1,72,29.97,10.0,North,6.9,-,N/A,,Mostly Cloudy,360,2012-10-07 17:56:00
2:27 PM,75.2,68.0,78,29.95,10.0,NNW,11.5,-,0.00,Rain,Light Rain,330,2012-10-07 18:27:00
2:56 PM,78.1,68.0,71,29.97,10.0,North,9.2,-,0.00,,Scattered Clouds,350,2012-10-07 18:56:00
3:18 PM,77.0,68.0,74,29.95,10.0,North,8.1,-,N/A,,Mostly Cloudy,360,2012-10-07 19:18:00
3:27 PM,78.8,68.0,69,29.95,10.0,North,5.8,-,N/A,,Scattered Clouds,10,2012-10-07 19:27:00
3:56 PM,79.0,69.1,72,29.96,10.0,ENE,3.5,-,N/A,,Clear,70,2012-10-07 19:56:00
4:44 PM,78.8,69.8,74,29.95,10.0,Variable,3.5,-,N/A,,Mostly Cloudy,0,2012-10-07 20:44:00
4:56 PM,78.1,69.1,74,29.96,10.0,NE,5.8,-,N/A,,Mostly Cloudy,50,2012-10-07 20:56:00
5:21 PM,75.2,69.8,83,29.95,10.0,NNE,5.8,-,N/A,,Scattered Clouds,20,2012-10-07 21:21:00
5:56 PM,73.9,71.1,91,29.96,2.5,North,11.5,-,0.11,Rain,Heavy Rain,350,2012-10-07 21:56:00
6:06 PM,73.4,71.6,94,29.97,3.0,North,10.4,-,0.04,Rain,Rain,360,2012-10-07 22:06:00
6:18 PM,73.4,71.6,94,29.97,7.0,NW,3.5,-,0.05,Rain,Light Rain,320,2012-10-07 22:18:00
6:56 PM,75.0,69.1,82,30.00,10.0,North,4.6,-,0.05,Rain,Light Rain,360,2012-10-07 22:56:00
7:56 PM,73.0,68.0,84,30.01,10.0,NNW,8.1,-,0.01,,Mostly Cloudy,340,2012-10-07 23:56:00
8:54 PM,71.6,64.4,78,30.05,10.0,NNW,13.8,18.4,N/A,,Mostly Cloudy,330,2012-10-08 00:54:00
8:56 PM,71.1,64.9,81,30.06,10.0,NNW,12.7,18.4,N/A,,Mostly Cloudy,330,2012-10-08 00:56:00
9:16 PM,69.8,62.6,78,30.06,10.0,NNW,11.5,-,N/A,,Overcast,340,2012-10-08 01:16:00
9:27 PM,68.0,62.6,83,30.06,10.0,NW,13.8,-,N/A,,Overcast,310,2012-10-08 01:27:00
9:56 PM,66.0,61.0,84,30.07,10.0,NNW,16.1,26.5,N/A,,Overcast,330,2012-10-08 01:56:00
10:56 PM,64.9,60.1,84,30.11,10.0,NNW,15.0,24.2,N/A,,Overcast,340,2012-10-08 02:56:00
11:56 PM,63.0,59.0,87,30.10,10.0,North,11.5,-,N/A,,Overcast,360,2012-10-08 03:56:00